Time,TemperatureF,DewpointF,PressureIn,WindDirection,WindDirectionDegrees,WindSpeedMPH,WindSpeedGustMPH,Humidity,HourlyPrecipIn,Conditions,Clouds,dailyrainin,SoftwareType,DateUTC
2013-03-30 00:00:00,40.5,22.2,30.28,ENE,68,0.0,0.0,48,0.00,,,0.00,WUHU216HW,2013-03-30 04:00:00,
2013-03-30 00:05:00,40.5,22.2,30.27,ENE,68,0.0,0.0,48,0.00,,,0.00,WUHU216HW,2013-03-30 04:05:00,
2013-03-30 00:10:00,40.3,22.1,30.27,ENE,68,0.0,0.0,48,0.00,,,0.00,WUHU216HW,2013-03-30 04:10:00,
2013-03-30 00:15:00,40.1,22.4,30.27,ENE,68,0.0,0.0,49,0.00,,,0.00,WUHU216HW,2013-03-30 04:15:00,
2013-03-30 00:20:00,40.0,22.2,30.27,ENE,68,0.0,0.0,49,0.00,,,0.00,WUHU216HW,2013-03-30 04:20:00,
2013-03-30 00:25:00,40.0,22.2,30.27,ENE,68,0.0,0.0,49,0.00,,,0.00,WUHU216HW,2013-03-30 04:25:00,
2013-03-30 00:30:00,39.8,22.2,30.27,ENE,68,0.0,0.0,49,0.00,,,0.00,WUHU216HW,2013-03-30 04:30:00,
2013-03-30 00:35:00,39.6,22.0,30.27,ENE,68,0.0,0.0,49,0.00,,,0.00,WUHU216HW,2013-03-30 04:35:00,
2013-03-30 00:40:00,39.2,21.6,30.27,ENE,68,0.0,0.0,49,0.00,,,0.00,WUHU216HW,2013-03-30 04:40:00,
2013-03-30 00:45:00,39.2,21.6,30.27,ENE,68,0.0,0.0,49,0.00,,,0.00,WUHU216HW,2013-03-30 04:45:00,
2013-03-30 00:50:00,39.1,21.4,30.27,ENE,68,0.0,0.0,49,0.00,,,0.00,WUHU216HW,2013-03-30 04:50:00,
2013-03-30 00:55:00,38.9,21.8,30.27,West,270,2.7,2.7,50,0.00,,,0.00,WUHU216HW,2013-03-30 04:55:00,
2013-03-30 01:00:00,38.2,21.6,30.27,SW,225,0.7,2.7,51,0.00,,,0.00,WUHU216HW,2013-03-30 05:00:00,
2013-03-30 01:05:00,38.2,22.5,30.27,West,270,0.7,2.5,53,0.00,,,0.00,WUHU216HW,2013-03-30 05:05:00,
2013-03-30 01:10:00,38.2,22.5,30.27,NNW,338,0.0,1.6,53,0.00,,,0.00,WUHU216HW,2013-03-30 05:10:00,
2013-03-30 01:15:00,38.2,22.1,30.27,NNW,338,0.0,0.7,52,0.00,,,0.00,WUHU216HW,2013-03-30 05:15:00,
2013-03-30 01:20:00,38.3,22.2,30.27,NNW,338,0.0,0.0,52,0.00,,,0.00,WUHU216HW,2013-03-30 05:20:00,
2013-03-30 01:25:00,38.3,22.2,30.27,NNW,338,0.0,0.0,52,0.00,,,0.00,WUHU216HW,2013-03-30 05:25:00,
2013-03-30 01:30:00,38.3,22.2,30.27,NNW,338,0.0,0.0,52,0.00,,,0.00,WUHU216HW,2013-03-30 05:30:00,
2013-03-30 01:35:00,38.3,22.2,30.27,NNW,338,0.0,0.0,52,0.00,,,0.00,WUHU216HW,2013-03-30 05:35:00,
2013-03-30 01:40:00,38.2,22.1,30.27,West,270,0.2,0.4,52,0.00,,,0.00,WUHU216HW,2013-03-30 05:40:00,
2013-03-30 01:45:00,38.0,21.9,30.28,West,270,0.0,0.4,52,0.00,,,0.00,WUHU216HW,2013-03-30 05:45:00,
2013-03-30 01:50:00,37.8,21.7,30.28,WNW,293,0.0,0.4,52,0.00,,,0.00,WUHU216HW,2013-03-30 05:50:00,
2013-03-30 01:55:00,37.8,21.7,30.27,WNW,293,0.0,0.2,52,0.00,,,0.00,WUHU216HW,2013-03-30 05:55:00,
2013-03-30 02:00:00,37.6,21.5,30.27,WNW,293,0.0,0.0,52,0.00,,,0.00,WUHU216HW,2013-03-30 06:00:00,
2013-03-30 02:05:00,37.4,21.8,30.27,WNW,293,0.0,0.0,53,0.00,,,0.00,WUHU216HW,2013-03-30 06:05:00,
2013-03-30 02:10:00,37.4,21.8,30.27,WNW,293,0.0,0.0,53,0.00,,,0.00,WUHU216HW,2013-03-30 06:10:00,
2013-03-30 02:15:00,37.4,21.8,30.27,WNW,293,0.0,0.0,53,0.00,,,0.00,WUHU216HW,2013-03-30 06:15:00,
2013-03-30 02:20:00,37.4,21.8,30.27,WNW,293,0.0,0.0,53,0.00,,,0.00,WUHU216HW,2013-03-30 06:20:00,
2013-03-30 02:25:00,37.3,21.7,30.27,WNW,293,0.0,0.0,53,0.00,,,0.00,WUHU216HW,2013-03-30 06:25:00,
2013-03-30 02:30:00,37.1,21.5,30.27,WNW,293,0.0,0.0,53,0.00,,,0.00,WUHU216HW,2013-03-30 06:30:00,
2013-03-30 02:35:00,37.1,22.0,30.27,WNW,293,0.0,0.0,54,0.00,,,0.00,WUHU216HW,2013-03-30 06:35:00,
2013-03-30 02:40:00,36.9,21.8,30.27,WNW,293,0.0,0.0,54,0.00,,,0.00,WUHU216HW,2013-03-30 06:40:00,
2013-03-30 02:45:00,36.7,21.6,30.27,WNW,293,0.0,0.0,54,0.00,,,0.00,WUHU216HW,2013-03-30 06:45:00,
2013-03-30 02:50:00,36.5,21.4,30.27,WNW,293,0.0,0.0,54,0.00,,,0.00,WUHU216HW,2013-03-30 06:50:00,
2013-03-30 02:55:00,36.4,21.2,30.27,WNW,293,0.0,0.0,54,0.00,,,0.00,WUHU216HW,2013-03-30 06:55:00,
2013-03-30 03:00:00,36.4,21.7,30.27,WNW,293,0.0,0.0,55,0.00,,,0.00,WUHU216HW,2013-03-30 07:00:00,
2013-03-30 03:05:00,36.2,21.5,30.27,WNW,293,0.0,0.0,55,0.00,,,0.00,WUHU216HW,2013-03-30 07:05:00,
2013-03-30 03:10:00,36.0,21.4,30.27,WNW,293,0.0,0.0,55,0.00,,,0.00,WUHU216HW,2013-03-30 07:10:00,
2013-03-30 03:15:00,35.8,21.3,30.27,WNW,293,0.0,0.0,55,0.00,,,0.00,WUHU216HW,2013-03-30 07:15:00,
2013-03-30 03:20:00,35.6,21.5,30.27,WNW,293,0.0,0.0,56,0.00,,,0.00,WUHU216HW,2013-03-30 07:20:00,
2013-03-30 03:25:00,35.5,21.3,30.27,WNW,293,0.0,0.0,56,0.00,,,0.00,WUHU216HW,2013-03-30 07:25:00,
2013-03-30 03:30:00,35.3,21.6,30.27,WNW,293,0.0,0.0,57,0.00,,,0.00,WUHU216HW,2013-03-30 07:30:00,
2013-03-30 03:35:00,35.1,21.4,30.27,WNW,293,0.0,0.0,57,0.00,,,0.00,WUHU216HW,2013-03-30 07:35:00,
2013-03-30 03:40:00,34.9,21.3,30.27,WNW,293,0.0,0.0,57,0.00,,,0.00,WUHU216HW,2013-03-30 07:40:00,
2013-03-30 03:45:00,34.9,20.8,30.27,WNW,293,0.0,0.0,56,0.00,,,0.00,WUHU216HW,2013-03-30 07:45:00,
2013-03-30 03:50:00,34.7,20.6,30.26,WNW,293,0.0,0.0,56,0.00,,,0.00,WUHU216HW,2013-03-30 07:50:00,
2013-03-30 03:55:00,34.7,21.1,30.27,WNW,293,0.0,0.0,57,0.00,,,0.00,WUHU216HW,2013-03-30 07:55:00,
2013-03-30 04:00:00,34.7,21.1,30.27,WNW,293,0.0,0.0,57,0.00,,,0.00,WUHU216HW,2013-03-30 08:00:00,
2013-03-30 04:05:00,34.6,20.9,30.27,WNW,293,0.0,0.2,57,0.00,,,0.00,WUHU216HW,2013-03-30 08:05:00,
2013-03-30 04:10:00,34.6,21.2,30.27,WNW,293,0.0,0.2,58,0.00,,,0.00,WUHU216HW,2013-03-30 08:10:00,
2013-03-30 04:15:00,34.4,21.1,30.26,WNW,293,0.0,0.0,58,0.00,,,0.00,WUHU216HW,2013-03-30 08:15:00,
2013-03-30 04:20:00,34.4,21.1,30.26,WNW,293,0.0,0.0,58,0.00,,,0.00,WUHU216HW,2013-03-30 08:20:00,
2013-03-30 04:25:00,34.2,20.9,30.26,WNW,293,0.0,0.0,58,0.00,,,0.00,WUHU216HW,2013-03-30 08:25:00,
2013-03-30 04:30:00,34.2,20.9,30.26,WNW,293,0.0,0.0,58,0.00,,,0.00,WUHU216HW,2013-03-30 08:30:00,
2013-03-30 04:35:00,34.2,20.9,30.26,WNW,293,0.0,0.0,58,0.00,,,0.00,WUHU216HW,2013-03-30 08:35:00,
2013-03-30 04:40:00,34.0,20.7,30.26,WNW,293,0.0,0.0,58,0.00,,,0.00,WUHU216HW,2013-03-30 08:40:00,
2013-03-30 04:45:00,34.0,20.7,30.26,WNW,293,0.0,0.0,58,0.00,,,0.00,WUHU216HW,2013-03-30 08:45:00,
2013-03-30 04:50:00,34.2,20.9,30.26,WNW,293,0.0,0.0,58,0.00,,,0.00,WUHU216HW,2013-03-30 08:50:00,
2013-03-30 04:55:00,34.2,20.9,30.26,WNW,293,0.0,0.0,58,0.00,,,0.00,WUHU216HW,2013-03-30 08:55:00,
2013-03-30 05:00:00,34.0,20.7,30.25,WNW,293,0.0,0.0,58,0.00,,,0.00,WUHU216HW,2013-03-30 09:00:00,
2013-03-30 05:05:00,34.2,20.9,30.25,WNW,293,0.0,0.0,58,0.00,,,0.00,WUHU216HW,2013-03-30 09:05:00,
2013-03-30 05:10:00,34.0,20.7,30.25,WNW,293,0.0,0.0,58,0.00,,,0.00,WUHU216HW,2013-03-30 09:10:00,
2013-03-30 05:15:00,33.8,20.5,30.25,WNW,293,0.0,0.0,58,0.00,,,0.00,WUHU216HW,2013-03-30 09:15:00,
2013-03-30 05:20:00,33.7,20.4,30.26,WNW,293,0.0,0.0,58,0.00,,,0.00,WUHU216HW,2013-03-30 09:20:00,
2013-03-30 05:25:00,33.7,20.4,30.26,WNW,293,0.0,0.0,58,0.00,,,0.00,WUHU216HW,2013-03-30 09:25:00,
2013-03-30 05:30:00,33.7,20.8,30.26,WNW,293,0.0,0.0,59,0.00,,,0.00,WUHU216HW,2013-03-30 09:30:00,
2013-03-30 05:34:00,33.5,20.3,30.25,WNW,293,0.0,0.0,58,0.00,,,0.00,WUHU216HW,2013-03-30 09:34:00,
2013-03-30 05:39:00,33.3,20.5,30.25,WNW,293,0.0,0.0,59,0.00,,,0.00,WUHU216HW,2013-03-30 09:39:00,
2013-03-30 05:44:00,33.3,20.5,30.25,WNW,293,0.0,0.0,59,0.00,,,0.00,WUHU216HW,2013-03-30 09:44:00,
2013-03-30 05:49:00,33.3,20.5,30.25,WNW,293,0.0,0.0,59,0.00,,,0.00,WUHU216HW,2013-03-30 09:49:00,
2013-03-30 05:54:00,33.3,20.5,30.25,WNW,293,0.0,0.0,59,0.00,,,0.00,WUHU216HW,2013-03-30 09:54:00,
2013-03-30 05:59:00,33.3,20.5,30.26,WNW,293,0.0,0.0,59,0.00,,,0.00,WUHU216HW,2013-03-30 09:59:00,
2013-03-30 06:04:00,33.1,20.3,30.26,WNW,293,0.0,0.0,59,0.00,,,0.00,WUHU216HW,2013-03-30 10:04:00,
2013-03-30 06:09:00,33.1,20.3,30.25,WNW,293,0.0,0.0,59,0.00,,,0.00,WUHU216HW,2013-03-30 10:09:00,
2013-03-30 06:14:00,33.1,20.3,30.25,WNW,293,0.0,0.0,59,0.00,,,0.00,WUHU216HW,2013-03-30 10:14:00,
2013-03-30 06:19:00,32.9,20.6,30.26,WNW,293,0.0,0.0,60,0.00,,,0.00,WUHU216HW,2013-03-30 10:19:00,
2013-03-30 06:24:00,32.8,20.4,30.25,WNW,293,0.0,0.0,60,0.00,,,0.00,WUHU216HW,2013-03-30 10:24:00,
2013-03-30 06:29:00,32.8,20.4,30.25,WNW,293,0.0,0.0,60,0.00,,,0.00,WUHU216HW,2013-03-30 10:29:00,
2013-03-30 06:34:00,32.8,20.4,30.25,WNW,293,0.0,0.0,60,0.00,,,0.00,WUHU216HW,2013-03-30 10:34:00,
2013-03-30 06:39:00,32.8,20.4,30.25,WNW,293,0.0,0.0,60,0.00,,,0.00,WUHU216HW,2013-03-30 10:39:00,
2013-03-30 06:44:00,32.4,20.2,30.25,WNW,293,0.0,0.0,60,0.00,,,0.00,WUHU216HW,2013-03-30 10:44:00,
2013-03-30 06:49:00,32.6,20.6,30.26,WNW,293,0.0,0.0,61,0.00,,,0.00,WUHU216HW,2013-03-30 10:49:00,
2013-03-30 06:54:00,32.6,20.6,30.26,WNW,293,0.0,0.0,61,0.00,,,0.00,WUHU216HW,2013-03-30 10:54:00,
2013-03-30 06:59:00,32.6,20.6,30.26,WNW,293,0.0,0.0,61,0.00,,,0.00,WUHU216HW,2013-03-30 10:59:00,
2013-03-30 07:04:00,32.6,20.6,30.26,WNW,293,0.0,0.0,61,0.00,,,0.00,WUHU216HW,2013-03-30 11:04:00,
2013-03-30 07:09:00,32.6,20.6,30.26,WNW,293,0.0,0.0,61,0.00,,,0.00,WUHU216HW,2013-03-30 11:09:00,
2013-03-30 07:14:00,32.4,20.5,30.26,WNW,293,0.0,0.0,61,0.00,,,0.00,WUHU216HW,2013-03-30 11:14:00,
2013-03-30 07:19:00,32.4,20.5,30.26,WNW,293,0.0,0.0,61,0.00,,,0.00,WUHU216HW,2013-03-30 11:19:00,
2013-03-30 07:24:00,32.4,20.5,30.26,WNW,293,0.0,0.0,61,0.00,,,0.00,WUHU216HW,2013-03-30 11:24:00,
2013-03-30 07:29:00,32.2,20.7,30.26,WNW,293,0.0,0.0,62,0.00,,,0.00,WUHU216HW,2013-03-30 11:29:00,
2013-03-30 07:34:00,32.2,20.7,30.26,WNW,293,0.0,0.0,62,0.00,,,0.00,WUHU216HW,2013-03-30 11:34:00,
2013-03-30 07:39:00,32.0,20.5,30.26,WNW,293,0.0,0.0,62,0.00,,,0.00,WUHU216HW,2013-03-30 11:39:00,
2013-03-30 07:44:00,31.9,20.3,30.26,WNW,293,0.0,0.0,62,0.00,,,0.00,WUHU216HW,2013-03-30 11:44:00,
2013-03-30 07:49:00,31.9,20.3,30.27,WNW,293,0.0,0.0,62,0.00,,,0.00,WUHU216HW,2013-03-30 11:49:00,
2013-03-30 07:54:00,32.0,20.5,30.27,WNW,293,0.0,0.0,62,0.00,,,0.00,WUHU216HW,2013-03-30 11:54:00,
2013-03-30 07:59:00,32.0,20.5,30.27,WNW,293,0.0,0.0,62,0.00,,,0.00,WUHU216HW,2013-03-30 11:59:00,
2013-03-30 08:04:00,32.2,20.7,30.27,WNW,293,0.0,0.0,62,0.00,,,0.00,WUHU216HW,2013-03-30 12:04:00,
2013-03-30 08:09:00,32.4,21.3,30.27,WNW,293,0.0,0.0,63,0.00,,,0.00,WUHU216HW,2013-03-30 12:09:00,
2013-03-30 08:14:00,32.8,21.5,30.27,WNW,293,0.0,0.0,63,0.00,,,0.00,WUHU216HW,2013-03-30 12:14:00,
2013-03-30 08:19:00,33.3,22.1,30.27,WNW,293,0.0,0.0,63,0.00,,,0.00,WUHU216HW,2013-03-30 12:19:00,
2013-03-30 08:24:00,33.8,22.5,30.27,WNW,293,0.0,0.0,63,0.00,,,0.00,WUHU216HW,2013-03-30 12:24:00,
2013-03-30 08:29:00,34.4,23.0,30.27,WNW,293,0.0,0.4,63,0.00,,,0.00,WUHU216HW,2013-03-30 12:29:00,
2013-03-30 08:34:00,34.9,23.6,30.27,WNW,293,0.2,0.4,63,0.00,,,0.00,WUHU216HW,2013-03-30 12:34:00,
2013-03-30 08:39:00,34.9,23.6,30.27,WNW,293,0.2,0.2,63,0.00,,,0.00,WUHU216HW,2013-03-30 12:39:00,
2013-03-30 09:00:00,38.0,25.8,30.27,SW,225,0.4,0.4,61,0.00,,,0.00,WUHU216HW,2013-03-30 13:00:00,
2013-03-30 09:05:00,38.5,26.2,30.26,SSW,203,1.1,1.1,61,0.00,,,0.00,WUHU216HW,2013-03-30 13:05:00,
2013-03-30 09:10:00,38.7,26.4,30.27,West,270,0.0,1.1,61,0.00,,,0.00,WUHU216HW,2013-03-30 13:10:00,
2013-03-30 09:15:00,39.2,26.5,30.26,SSW,203,0.2,0.9,60,0.00,,,0.00,WUHU216HW,2013-03-30 13:15:00,
2013-03-30 09:19:00,39.6,26.8,30.26,WSW,248,0.0,1.1,60,0.00,,,0.00,WUHU216HW,2013-03-30 13:19:00,
2013-03-30 09:24:00,40.1,26.9,30.26,SSW,203,0.7,1.1,59,0.00,,,0.00,WUHU216HW,2013-03-30 13:24:00,
2013-03-30 09:29:00,40.9,27.2,30.26,South,180,0.7,0.7,58,0.00,,,0.00,WUHU216HW,2013-03-30 13:29:00,
2013-03-30 09:34:00,41.4,27.3,30.25,South,180,0.9,1.1,57,0.00,,,0.00,WUHU216HW,2013-03-30 13:34:00,
2013-03-30 09:39:00,41.4,27.3,30.26,SW,225,0.4,1.1,57,0.00,,,0.00,WUHU216HW,2013-03-30 13:39:00,
2013-03-30 09:45:00,41.9,27.7,30.25,SSE,158,1.1,1.1,57,0.00,,,0.00,WUHU216HW,2013-03-30 13:45:00,
2013-03-30 09:50:00,42.3,28.1,30.25,SSW,203,0.4,1.3,57,0.00,,,0.00,WUHU216HW,2013-03-30 13:50:00,
2013-03-30 09:55:00,43.0,28.8,30.25,SSW,203,1.3,1.8,57,0.00,,,0.00,WUHU216HW,2013-03-30 13:55:00,
2013-03-30 10:00:00,43.6,28.8,30.25,SE,135,1.6,1.8,56,0.00,,,0.00,WUHU216HW,2013-03-30 14:00:00,
2013-03-30 10:05:00,43.9,29.2,30.25,SSE,158,1.1,2.2,56,0.00,,,0.00,WUHU216HW,2013-03-30 14:05:00,
2013-03-30 10:10:00,44.5,29.3,30.25,South,180,1.1,2.2,55,0.00,,,0.00,WUHU216HW,2013-03-30 14:10:00,
2013-03-30 10:15:00,45.0,30.3,30.25,SW,225,0.9,1.3,56,0.00,,,0.00,WUHU216HW,2013-03-30 14:15:00,
2013-03-30 10:20:00,45.4,30.1,30.24,SSE,158,1.8,2.5,55,0.00,,,0.00,WUHU216HW,2013-03-30 14:20:00,
2013-03-30 10:25:00,45.7,30.0,30.24,WSW,248,0.0,2.5,54,0.00,,,0.00,WUHU216HW,2013-03-30 14:25:00,
2013-03-30 10:30:00,46.1,30.2,30.24,SSE,158,1.1,1.3,54,0.00,,,0.00,WUHU216HW,2013-03-30 14:30:00,
2013-03-30 10:35:00,46.4,30.2,30.23,SE,135,0.4,1.3,53,0.00,,,0.00,WUHU216HW,2013-03-30 14:35:00,
2013-03-30 10:40:00,47.0,30.7,30.23,SSE,158,1.1,1.3,53,0.00,,,0.00,WUHU216HW,2013-03-30 14:40:00,
2013-03-30 10:45:00,47.3,30.5,30.23,South,180,0.4,1.1,52,0.00,,,0.00,WUHU216HW,2013-03-30 14:45:00,
2013-03-30 10:50:00,47.9,30.1,30.23,SW,225,0.9,1.1,50,0.00,,,0.00,WUHU216HW,2013-03-30 14:50:00,
2013-03-30 10:55:00,48.4,30.1,30.23,SSW,203,2.0,2.0,49,0.00,,,0.00,WUHU216HW,2013-03-30 14:55:00,
2013-03-30 11:00:00,48.8,29.9,30.24,West,270,1.6,2.0,48,0.00,,,0.00,WUHU216HW,2013-03-30 15:00:00,
2013-03-30 11:05:00,49.0,29.5,30.23,SSE,158,1.6,1.6,47,0.00,,,0.00,WUHU216HW,2013-03-30 15:05:00,
2013-03-30 11:10:00,49.3,29.9,30.23,SW,225,0.4,1.6,47,0.00,,,0.00,WUHU216HW,2013-03-30 15:10:00,
2013-03-30 11:15:00,49.9,29.8,30.23,South,180,1.1,1.1,46,0.00,,,0.00,WUHU216HW,2013-03-30 15:15:00,
2013-03-30 11:20:00,50.0,29.4,30.23,WSW,248,0.7,1.1,45,0.00,,,0.00,WUHU216HW,2013-03-30 15:20:00,
2013-03-30 11:25:00,50.6,29.3,30.23,SSE,158,1.1,1.6,44,0.00,,,0.00,WUHU216HW,2013-03-30 15:25:00,
2013-03-30 11:30:00,50.9,29.7,30.22,SSE,158,1.8,1.8,44,0.00,,,0.00,WUHU216HW,2013-03-30 15:30:00,
2013-03-30 11:35:00,51.1,29.9,30.22,South,180,1.1,1.8,44,0.00,,,0.00,WUHU216HW,2013-03-30 15:35:00,
2013-03-30 11:40:00,51.7,29.8,30.22,NW,315,1.1,2.2,43,0.00,,,0.00,WUHU216HW,2013-03-30 15:40:00,
2013-03-30 11:45:00,51.8,30.0,30.22,South,180,2.0,2.2,43,0.00,,,0.00,WUHU216HW,2013-03-30 15:45:00,
2013-03-30 11:50:00,52.6,30.6,30.22,West,270,2.2,2.2,43,0.00,,,0.00,WUHU216HW,2013-03-30 15:50:00,
2013-03-30 11:55:00,52.9,30.9,30.22,WSW,248,1.1,2.2,43,0.00,,,0.00,WUHU216HW,2013-03-30 15:55:00,
2013-03-30 12:00:00,53.3,31.2,30.21,South,180,0.9,2.2,43,0.00,,,0.00,WUHU216HW,2013-03-30 16:00:00,
2013-03-30 12:05:00,53.5,30.9,30.21,ESE,113,2.5,2.5,42,0.00,,,0.00,WUHU216HW,2013-03-30 16:05:00,
2013-03-30 12:10:00,53.8,30.1,30.21,South,180,0.4,2.5,40,0.00,,,0.00,WUHU216HW,2013-03-30 16:10:00,
2013-03-30 12:15:00,53.8,29.3,30.21,South,180,0.4,3.4,39,0.00,,,0.00,WUHU216HW,2013-03-30 16:15:00,
2013-03-30 12:20:00,53.8,28.0,30.20,SSE,158,2.7,3.4,37,0.00,,,0.00,WUHU216HW,2013-03-30 16:20:00,
2013-03-30 12:25:00,53.6,29.2,30.20,NW,315,0.4,2.7,39,0.00,,,0.00,WUHU216HW,2013-03-30 16:25:00,
2013-03-30 12:30:00,54.0,28.8,30.20,SE,135,2.7,2.9,38,0.00,,,0.00,WUHU216HW,2013-03-30 16:30:00,
2013-03-30 12:35:00,54.0,28.8,30.20,SSE,158,3.1,3.1,38,0.00,,,0.00,WUHU216HW,2013-03-30 16:35:00,
2013-03-30 12:40:00,54.0,29.5,30.20,SE,135,1.8,3.1,39,0.00,,,0.00,WUHU216HW,2013-03-30 16:40:00,
2013-03-30 12:45:00,54.5,29.4,30.20,SE,135,1.8,2.5,38,0.00,,,0.00,WUHU216HW,2013-03-30 16:45:00,
2013-03-30 12:50:00,54.7,29.4,30.20,NE,45,1.6,2.5,38,0.00,,,0.00,WUHU216HW,2013-03-30 16:50:00,
2013-03-30 12:55:00,54.9,27.6,30.20,SSW,203,1.1,3.4,35,0.00,,,0.00,WUHU216HW,2013-03-30 16:55:00,
2013-03-30 13:00:00,54.4,28.4,30.19,SSW,203,3.4,3.4,37,0.00,,,0.00,WUHU216HW,2013-03-30 17:00:00,
2013-03-30 13:05:00,54.4,29.2,30.19,SE,135,0.4,3.4,38,0.00,,,0.00,WUHU216HW,2013-03-30 17:05:00,
2013-03-30 13:10:00,54.5,28.6,30.18,SSE,158,2.7,2.9,37,0.00,,,0.00,WUHU216HW,2013-03-30 17:10:00,
2013-03-30 13:15:00,54.7,28.8,30.18,WSW,248,5.4,5.4,37,0.00,,,0.00,WUHU216HW,2013-03-30 17:15:00,
2013-03-30 13:20:00,54.4,28.4,30.18,NNE,23,2.0,5.4,37,0.00,,,0.00,WUHU216HW,2013-03-30 17:20:00,
2013-03-30 13:25:00,54.5,27.9,30.17,SSW,203,0.7,3.1,36,0.00,,,0.00,WUHU216HW,2013-03-30 17:25:00,
2013-03-30 13:30:00,54.5,27.9,30.17,SW,225,0.9,3.1,36,0.00,,,0.00,WUHU216HW,2013-03-30 17:30:00,
2013-03-30 13:35:00,54.7,28.1,30.17,NNW,338,1.3,2.5,36,0.00,,,0.00,WUHU216HW,2013-03-30 17:35:00,
2013-03-30 13:40:00,54.9,28.9,30.17,SSW,203,0.9,2.5,37,0.00,,,0.00,WUHU216HW,2013-03-30 17:40:00,
2013-03-30 13:45:00,55.1,28.4,30.17,West,270,2.7,2.7,36,0.00,,,0.00,WUHU216HW,2013-03-30 17:45:00,
2013-03-30 13:50:00,54.9,28.3,30.17,South,180,1.6,3.4,36,0.00,,,0.00,WUHU216HW,2013-03-30 17:50:00,
2013-03-30 13:55:00,55.1,27.7,30.17,SSW,203,3.6,3.6,35,0.00,,,0.00,WUHU216HW,2013-03-30 17:55:00,
2013-03-30 14:00:00,55.6,28.9,30.17,SSE,158,1.8,3.6,36,0.00,,,0.00,WUHU216HW,2013-03-30 18:00:00,
2013-03-30 14:05:00,55.8,29.7,30.17,West,270,4.9,4.9,37,0.00,,,0.00,WUHU216HW,2013-03-30 18:05:00,
2013-03-30 14:10:00,55.6,28.9,30.17,WNW,293,1.1,6.5,36,0.00,,,0.00,WUHU216HW,2013-03-30 18:10:00,
2013-03-30 14:15:00,55.4,28.7,30.17,WSW,248,2.7,6.5,36,0.00,,,0.00,WUHU216HW,2013-03-30 18:15:00,
2013-03-30 14:20:00,55.8,29.0,30.17,South,180,0.7,2.7,36,0.00,,,0.00,WUHU216HW,2013-03-30 18:20:00,
2013-03-30 14:25:00,55.4,26.6,30.17,NW,315,3.4,3.4,33,0.00,,,0.00,WUHU216HW,2013-03-30 18:25:00,
2013-03-30 14:30:00,55.6,27.5,30.17,WSW,248,0.2,3.4,34,0.00,,,0.00,WUHU216HW,2013-03-30 18:30:00,
2013-03-30 14:35:00,55.4,26.6,30.16,SW,225,0.4,2.5,33,0.00,,,0.00,WUHU216HW,2013-03-30 18:35:00,
2013-03-30 14:40:00,55.4,26.6,30.16,SE,135,2.7,3.4,33,0.00,,,0.00,WUHU216HW,2013-03-30 18:40:00,
2013-03-30 14:45:00,55.6,26.7,30.16,South,180,0.7,3.4,33,0.00,,,0.00,WUHU216HW,2013-03-30 18:45:00,
2013-03-30 14:50:00,55.6,26.0,30.15,NW,315,1.3,2.9,32,0.00,,,0.00,WUHU216HW,2013-03-30 18:50:00,
2013-03-30 14:55:00,55.4,26.6,30.15,SSW,203,2.0,2.9,33,0.00,,,0.00,WUHU216HW,2013-03-30 18:55:00,
2013-03-30 15:00:00,55.6,26.7,30.14,NE,45,1.1,3.8,33,0.00,,,0.00,WUHU216HW,2013-03-30 19:00:00,
2013-03-30 15:05:00,55.6,26.0,30.14,SSE,158,4.3,4.3,32,0.00,,,0.00,WUHU216HW,2013-03-30 19:05:00,
2013-03-30 15:10:00,55.6,26.0,30.14,SSE,158,0.9,4.3,32,0.00,,,0.00,WUHU216HW,2013-03-30 19:10:00,
2013-03-30 15:15:00,55.6,26.7,30.14,ENE,68,2.2,4.3,33,0.00,,,0.00,WUHU216HW,2013-03-30 19:15:00,
2013-03-30 15:20:00,55.8,26.2,30.14,South,180,0.7,4.3,32,0.00,,,0.00,WUHU216HW,2013-03-30 19:20:00,
2013-03-30 15:25:00,55.6,24.7,30.14,NW,315,2.7,4.3,30,0.00,,,0.00,WUHU216HW,2013-03-30 19:25:00,
2013-03-30 15:30:00,55.6,24.7,30.13,SSE,158,2.0,3.1,30,0.00,,,0.00,WUHU216HW,2013-03-30 19:30:00,
2013-03-30 15:35:00,55.4,24.5,30.13,SE,135,1.8,2.2,30,0.00,,,0.00,WUHU216HW,2013-03-30 19:35:00,
2013-03-30 15:40:00,55.3,25.0,30.13,WSW,248,1.1,2.2,31,0.00,,,0.00,WUHU216HW,2013-03-30 19:40:00,
2013-03-30 15:45:00,55.4,25.2,30.13,South,180,1.1,3.8,31,0.00,,,0.00,WUHU216HW,2013-03-30 19:45:00,
2013-03-30 15:50:00,55.6,26.0,30.13,SW,225,1.1,3.8,32,0.00,,,0.00,WUHU216HW,2013-03-30 19:50:00,
2013-03-30 15:55:00,55.8,25.5,30.12,South,180,1.1,3.6,31,0.00,,,0.00,WUHU216HW,2013-03-30 19:55:00,
2013-03-30 16:00:00,55.8,25.5,30.12,SE,135,0.4,2.9,31,0.00,,,0.00,WUHU216HW,2013-03-30 20:00:00,
2013-03-30 16:05:00,55.8,25.5,30.12,NW,315,1.1,4.0,31,0.00,,,0.00,WUHU216HW,2013-03-30 20:05:00,
2013-03-30 16:10:00,55.6,24.7,30.11,NW,315,0.4,4.0,30,0.00,,,0.00,WUHU216HW,2013-03-30 20:10:00,
2013-03-30 16:15:00,55.6,25.4,30.11,WNW,293,1.6,1.8,31,0.00,,,0.00,WUHU216HW,2013-03-30 20:15:00,
2013-03-30 16:20:00,55.6,25.4,30.11,WSW,248,1.1,2.5,31,0.00,,,0.00,WUHU216HW,2013-03-30 20:20:00,
2013-03-30 16:25:00,55.8,25.5,30.11,SSW,203,0.9,2.5,31,0.00,,,0.00,WUHU216HW,2013-03-30 20:25:00,
2013-03-30 16:30:00,56.0,24.9,30.11,WNW,293,0.7,2.0,30,0.00,,,0.00,WUHU216HW,2013-03-30 20:30:00,
2013-03-30 16:35:00,55.8,25.5,30.10,SSE,158,1.8,2.7,31,0.00,,,0.00,WUHU216HW,2013-03-30 20:35:00,
2013-03-30 16:40:00,55.8,25.5,30.10,SE,135,0.9,2.7,31,0.00,,,0.00,WUHU216HW,2013-03-30 20:40:00,
2013-03-30 16:45:00,55.8,26.2,30.10,SSW,203,1.1,2.5,32,0.00,,,0.00,WUHU216HW,2013-03-30 20:45:00,
2013-03-30 16:50:00,55.8,25.5,30.10,WSW,248,3.6,3.6,31,0.00,,,0.00,WUHU216HW,2013-03-30 20:50:00,
2013-03-30 16:55:00,55.8,25.5,30.10,ESE,113,2.0,3.6,31,0.00,,,0.00,WUHU216HW,2013-03-30 20:55:00,
2013-03-30 17:00:00,55.8,24.9,30.09,West,270,1.6,2.0,30,0.00,,,0.00,WUHU216HW,2013-03-30 21:00:00,
2013-03-30 17:05:00,55.6,25.4,30.09,ESE,113,2.2,2.9,31,0.00,,,0.00,WUHU216HW,2013-03-30 21:05:00,
2013-03-30 17:10:00,55.6,24.7,30.09,WSW,248,1.1,2.9,30,0.00,,,0.00,WUHU216HW,2013-03-30 21:10:00,
2013-03-30 17:15:00,55.4,25.2,30.09,NNE,23,1.3,3.6,31,0.00,,,0.00,WUHU216HW,2013-03-30 21:15:00,
2013-03-30 17:20:00,55.4,24.5,30.09,SSE,158,2.0,3.6,30,0.00,,,0.00,WUHU216HW,2013-03-30 21:20:00,
2013-03-30 17:25:00,55.4,25.2,30.09,SE,135,0.2,2.0,31,0.00,,,0.00,WUHU216HW,2013-03-30 21:25:00,
2013-03-30 17:30:00,55.4,25.2,30.09,ENE,68,1.1,2.0,31,0.00,,,0.00,WUHU216HW,2013-03-30 21:30:00,
2013-03-30 17:35:00,55.4,25.2,30.09,WSW,248,1.3,1.3,31,0.00,,,0.00,WUHU216HW,2013-03-30 21:35:00,
2013-03-30 17:40:00,55.3,25.0,30.08,SW,225,0.7,1.3,31,0.00,,,0.00,WUHU216HW,2013-03-30 21:40:00,
2013-03-30 17:45:00,55.3,25.8,30.08,ENE,68,0.4,2.9,32,0.00,,,0.00,WUHU216HW,2013-03-30 21:45:00,
2013-03-30 17:50:00,55.4,24.5,30.08,SSE,158,2.2,2.9,30,0.00,,,0.00,WUHU216HW,2013-03-30 21:50:00,
2013-03-30 17:55:00,55.3,25.0,30.08,ENE,68,0.2,2.7,31,0.00,,,0.00,WUHU216HW,2013-03-30 21:55:00,
2013-03-30 18:00:00,55.1,24.9,30.07,West,270,1.3,2.7,31,0.00,,,0.00,WUHU216HW,2013-03-30 22:00:00,
2013-03-30 18:05:00,54.9,24.8,30.07,NNW,338,0.2,3.1,31,0.00,,,0.00,WUHU216HW,2013-03-30 22:05:00,
2013-03-30 18:10:00,54.9,25.5,30.07,SE,135,1.3,3.1,32,0.00,,,0.00,WUHU216HW,2013-03-30 22:10:00,
2013-03-30 18:15:00,54.9,24.8,30.07,West,270,0.4,1.8,31,0.00,,,0.00,WUHU216HW,2013-03-30 22:15:00,
2013-03-30 18:20:00,54.7,25.3,30.07,SSW,203,0.0,1.1,32,0.00,,,0.00,WUHU216HW,2013-03-30 22:20:00,
2013-03-30 18:25:00,54.5,25.8,30.07,SSW,203,0.4,1.1,33,0.00,,,0.00,WUHU216HW,2013-03-30 22:25:00,
2013-03-30 18:30:00,54.4,25.7,30.06,WNW,293,0.9,1.1,33,0.00,,,0.00,WUHU216HW,2013-03-30 22:30:00,
2013-03-30 18:35:00,54.4,25.7,30.06,West,270,0.9,1.3,33,0.00,,,0.00,WUHU216HW,2013-03-30 22:35:00,
2013-03-30 18:40:00,54.4,25.7,30.06,SE,135,1.1,2.5,33,0.00,,,0.00,WUHU216HW,2013-03-30 22:40:00,
2013-03-30 18:45:00,54.0,25.4,30.06,West,270,0.4,2.5,33,0.00,,,0.00,WUHU216HW,2013-03-30 22:45:00,
2013-03-30 18:50:00,54.0,26.1,30.06,SE,135,0.4,2.5,34,0.00,,,0.00,WUHU216HW,2013-03-30 22:50:00,
2013-03-30 18:55:00,53.8,25.9,30.06,ENE,68,0.4,2.5,34,0.00,,,0.00,WUHU216HW,2013-03-30 22:55:00,
2013-03-30 19:00:00,53.6,26.5,30.06,South,180,0.4,1.6,35,0.00,,,0.00,WUHU216HW,2013-03-30 23:00:00,
2013-03-30 19:05:00,53.5,27.0,30.06,WSW,248,2.0,2.0,36,0.00,,,0.00,WUHU216HW,2013-03-30 23:05:00,
2013-03-30 19:10:00,53.1,26.0,30.06,NW,315,0.4,2.5,35,0.00,,,0.00,WUHU216HW,2013-03-30 23:10:00,
2013-03-30 19:15:00,52.9,26.5,30.06,SE,135,2.2,2.5,36,0.00,,,0.00,WUHU216HW,2013-03-30 23:15:00,
2013-03-30 19:20:00,52.7,26.4,30.05,ESE,113,0.7,2.5,36,0.00,,,0.00,WUHU216HW,2013-03-30 23:20:00,
2013-03-30 19:25:00,52.6,26.8,30.05,SSE,158,0.2,2.7,37,0.00,,,0.00,WUHU216HW,2013-03-30 23:25:00,
2013-03-30 19:30:00,52.2,26.6,30.06,NW,315,0.9,2.7,37,0.00,,,0.00,WUHU216HW,2013-03-30 23:30:00,
2013-03-30 19:35:00,52.0,26.4,30.05,West,270,0.2,0.9,37,0.00,,,0.00,WUHU216HW,2013-03-30 23:35:00,
2013-03-30 19:40:00,51.7,26.7,30.06,West,270,0.0,0.9,38,0.00,,,0.00,WUHU216HW,2013-03-30 23:40:00,
2013-03-30 19:45:00,51.5,26.6,30.05,NW,315,0.7,1.8,38,0.00,,,0.00,WUHU216HW,2013-03-30 23:45:00,
2013-03-30 19:50:00,51.3,26.4,30.05,NW,315,0.2,2.5,38,0.00,,,0.00,WUHU216HW,2013-03-30 23:50:00,
2013-03-30 19:55:00,51.1,26.9,30.06,SSE,158,0.7,2.5,39,0.00,,,0.00,WUHU216HW,2013-03-30 23:55:00,
2013-03-30 20:00:00,51.1,26.9,30.05,SW,225,0.0,1.8,39,0.00,,,0.00,WUHU216HW,2013-03-31 00:00:00,
2013-03-30 20:05:00,51.1,26.9,30.05,ENE,68,0.0,0.2,39,0.00,,,0.00,WUHU216HW,2013-03-31 00:05:00,
2013-03-30 20:10:00,50.8,27.3,30.05,NE,45,0.0,1.6,40,0.00,,,0.00,WUHU216HW,2013-03-31 00:10:00,
2013-03-30 20:15:00,50.8,27.3,30.05,South,180,2.0,2.0,40,0.00,,,0.00,WUHU216HW,2013-03-31 00:15:00,
2013-03-30 20:20:00,50.6,27.1,30.05,East,90,0.4,2.5,40,0.00,,,0.00,WUHU216HW,2013-03-31 00:20:00,
2013-03-30 20:25:00,50.6,27.1,30.05,ESE,113,0.0,2.5,40,0.00,,,0.00,WUHU216HW,2013-03-31 00:25:00,
2013-03-30 20:30:00,50.6,27.7,30.05,East,90,0.4,0.7,41,0.00,,,0.00,WUHU216HW,2013-03-31 00:30:00,
2013-03-30 20:35:00,50.4,27.6,30.05,ENE,68,0.2,0.7,41,0.00,,,0.00,WUHU216HW,2013-03-31 00:35:00,
2013-03-30 20:40:00,50.0,27.2,30.04,NW,315,0.2,0.9,41,0.00,,,0.00,WUHU216HW,2013-03-31 00:40:00,
2013-03-30 20:45:00,50.0,26.6,30.04,SSE,158,0.0,1.1,40,0.00,,,0.00,WUHU216HW,2013-03-31 00:45:00,
2013-03-30 20:50:00,49.7,26.9,30.04,WSW,248,0.4,1.1,41,0.00,,,0.00,WUHU216HW,2013-03-31 00:50:00,
2013-03-30 20:55:00,49.9,27.0,30.04,NNW,338,0.0,1.1,41,0.00,,,0.00,WUHU216HW,2013-03-31 00:55:00,
2013-03-30 21:00:00,49.9,27.0,30.04,ENE,68,0.0,0.4,41,0.00,,,0.00,WUHU216HW,2013-03-31 01:00:00,
2013-03-30 21:05:00,49.9,27.6,30.04,SSE,158,0.0,0.9,42,0.00,,,0.00,WUHU216HW,2013-03-31 01:05:00,
2013-03-30 21:10:00,49.7,27.5,30.04,South,180,0.4,0.9,42,0.00,,,0.00,WUHU216HW,2013-03-31 01:10:00,
2013-03-30 21:15:00,49.5,27.3,30.04,West,270,0.0,0.7,42,0.00,,,0.00,WUHU216HW,2013-03-31 01:15:00,
2013-03-30 21:20:00,49.3,27.1,30.04,West,270,0.0,0.7,42,0.00,,,0.00,WUHU216HW,2013-03-31 01:20:00,
2013-03-30 21:25:00,49.3,27.1,30.04,ESE,113,0.0,0.0,42,0.00,,,0.00,WUHU216HW,2013-03-31 01:25:00,
2013-03-30 21:30:00,49.3,27.6,30.04,SSE,158,1.6,1.6,43,0.00,,,0.00,WUHU216HW,2013-03-31 01:30:00,
2013-03-30 21:35:00,49.0,27.3,30.04,ESE,113,0.0,1.6,43,0.00,,,0.00,WUHU216HW,2013-03-31 01:35:00,
2013-03-30 21:40:00,48.8,27.2,30.04,South,180,0.0,1.6,43,0.00,,,0.00,WUHU216HW,2013-03-31 01:40:00,
2013-03-30 21:45:00,48.6,27.6,30.04,South,180,0.7,0.9,44,0.00,,,0.00,WUHU216HW,2013-03-31 01:45:00,
2013-03-30 21:50:00,48.6,27.6,30.04,SSE,158,1.8,1.8,44,0.00,,,0.00,WUHU216HW,2013-03-31 01:50:00,
2013-03-30 21:55:00,48.4,27.4,30.04,SE,135,0.4,1.8,44,0.00,,,0.00,WUHU216HW,2013-03-31 01:55:00,
2013-03-30 22:00:00,48.2,27.2,30.04,SSE,158,0.4,2.2,44,0.00,,,0.00,WUHU216HW,2013-03-31 02:00:00,
2013-03-30 22:05:00,48.1,27.0,30.04,SE,135,0.4,2.2,44,0.00,,,0.00,WUHU216HW,2013-03-31 02:05:00,
2013-03-30 22:10:00,47.9,26.8,30.03,SSE,158,1.8,1.8,44,0.00,,,0.00,WUHU216HW,2013-03-31 02:10:00,
2013-03-30 22:12:00,47.9,26.8,30.03,SSE,158,4.0,4.0,44,0.00,,,0.00,WUHU216HW,2013-03-31 02:12:00,
2013-03-30 22:15:00,47.9,26.8,30.03,SSE,158,4.0,4.0,44,0.00,,,0.00,WUHU216HW,2013-03-31 02:15:00,
2013-03-30 22:20:00,47.9,26.8,30.03,SSE,158,4.0,4.0,44,0.00,,,0.00,WUHU216HW,2013-03-31 02:20:00,
2013-03-30 22:42:00,47.2,27.3,30.03,SE,135,0.2,0.2,46,0.00,,,0.00,WUHU216HW,2013-03-31 02:42:00,
2013-03-30 22:47:00,47.2,27.3,30.02,SE,135,0.4,0.9,46,0.00,,,0.00,WUHU216HW,2013-03-31 02:47:00,
2013-03-30 22:52:00,47.2,27.3,30.02,NW,315,0.0,0.9,46,0.00,,,0.00,WUHU216HW,2013-03-31 02:52:00,
2013-03-30 22:57:00,47.0,27.1,30.02,SW,225,0.4,0.9,46,0.00,,,0.00,WUHU216HW,2013-03-31 02:57:00,
2013-03-30 23:02:00,47.0,27.1,30.02,WSW,248,0.0,0.9,46,0.00,,,0.00,WUHU216HW,2013-03-31 03:02:00,
2013-03-30 23:07:00,46.8,27.0,30.02,SW,225,0.2,0.2,46,0.00,,,0.00,WUHU216HW,2013-03-31 03:07:00,
2013-03-30 23:12:00,46.8,27.0,30.02,SW,225,0.0,0.2,46,0.00,,,0.00,WUHU216HW,2013-03-31 03:12:00,
2013-03-30 23:17:00,46.6,27.4,30.01,SW,225,0.0,0.2,47,0.00,,,0.00,WUHU216HW,2013-03-31 03:17:00,
2013-03-30 23:22:00,46.4,27.2,30.01,WSW,248,0.0,0.0,47,0.00,,,0.00,WUHU216HW,2013-03-31 03:22:00,
2013-03-30 23:27:00,46.4,27.7,30.01,SSW,203,0.0,0.0,48,0.00,,,0.00,WUHU216HW,2013-03-31 03:27:00,
2013-03-30 23:32:00,46.3,27.5,30.01,SSW,203,0.0,0.0,48,0.00,,,0.00,WUHU216HW,2013-03-31 03:32:00,
2013-03-30 23:37:00,46.3,27.5,30.01,SSW,203,0.0,0.0,48,0.00,,,0.00,WUHU216HW,2013-03-31 03:37:00,
2013-03-30 23:42:00,46.1,27.4,30.01,SSW,203,0.0,0.0,48,0.00,,,0.00,WUHU216HW,2013-03-31 03:42:00,
2013-03-30 23:47:00,46.1,27.4,30.01,SSW,203,0.0,0.0,48,0.00,,,0.00,WUHU216HW,2013-03-31 03:47:00,
2013-03-30 23:52:00,45.9,27.3,30.00,SSW,203,0.0,0.0,48,0.00,,,0.00,WUHU216HW,2013-03-31 03:52:00,
2013-03-30 23:57:00,45.7,27.6,30.01,SSW,203,0.0,0.0,49,0.00,,,0.00,WUHU216HW,2013-03-31 03:57:00,